SAS105 EDDF-LFPG

Flight info

Callsign SAS105
Flight time N/A
Altitude 30000
Route SOBRA2L/18 SOBRA Y180 DIK UN857 TOLVU DCT RAPOR DCT VEDUS
Aircraft B77W/H-SDE1E2E3FGHIJ2J3J4J5M1RWXY/LB1D1

Departure

Time 2026-05-08 06:49
Airport Frankfurt Main Airport (EDDF)

Arrival

Time N/A
Airport Charles de Gaulle International Airport (LFPG)
Time Latitude Longitude Altitude Speed Heading
2026-05-08 06:45 50.03764 8.54757 359 ft 19 kts 249°
2026-05-08 06:46 50.03716 8.54558 359 ft 20 kts 250°
2026-05-08 06:46 50.03666 8.54348 353 ft 21 kts 250°
2026-05-08 06:46 50.03615 8.54134 353 ft 21 kts 249°
2026-05-08 06:46 50.03563 8.53920 353 ft 21 kts 249°
2026-05-08 06:47 50.03512 8.53707 353 ft 21 kts 250°
2026-05-08 06:47 50.03461 8.53492 353 ft 21 kts 250°
2026-05-08 06:47 50.03410 8.53278 348 ft 21 kts 250°
2026-05-08 06:47 50.03359 8.53064 337 ft 21 kts 250°
2026-05-08 06:48 50.03308 8.52850 337 ft 21 kts 250°
2026-05-08 06:48 50.03289 8.52772 335 ft 0 kts 250°
2026-05-08 06:48 50.03287 8.52763 336 ft 3 kts 250°
2026-05-08 06:48 50.03250 8.52633 338 ft 22 kts 231°
2026-05-08 06:49 50.03102 8.52600 340 ft 27 kts 178°
2026-05-08 06:49 50.02638 8.52606 339 ft 111 kts 180°
2026-05-08 06:49 50.01619 8.52614 352 ft 182 kts 179°
2026-05-08 06:49 50.00336 8.52615 1153 ft 177 kts 178°
2026-05-08 06:50 49.99100 8.52622 2123 ft 181 kts 178°
2026-05-08 06:50 49.97824 8.52633 2987 ft 186 kts 179°
2026-05-08 06:50 49.96509 8.52668 3793 ft 194 kts 176°
2026-05-08 06:50 49.95069 8.52836 4320 ft 223 kts 175°
2026-05-08 06:51 49.93484 8.53008 5159 ft 233 kts 176°
2026-05-08 06:51 49.91850 8.53154 6140 ft 236 kts 178°
2026-05-08 06:51 49.90192 8.53283 7019 ft 242 kts 178°
2026-05-08 06:51 49.89220 8.53354 7366 ft 257 kts 179°
2026-05-08 06:52 49.87777 8.53443 7908 ft 268 kts 182°
2026-05-08 06:52 49.86337 8.53103 8532 ft 273 kts 200°
2026-05-08 06:52 49.84654 8.52044 9423 ft 279 kts 203°
2026-05-08 06:52 49.82870 8.50974 10424 ft 286 kts 201°
2026-05-08 06:53 49.80949 8.49876 11091 ft 307 kts 201°
2026-05-08 06:53 49.78859 8.48593 11316 ft 335 kts 209°
2026-05-08 06:53 49.77029 8.46175 11612 ft 362 kts 236°
2026-05-08 06:53 49.76070 8.42553 12524 ft 371 kts 261°
2026-05-08 06:54 49.76218 8.38569 13599 ft 374 kts 283°
2026-05-08 06:54 49.76933 8.34657 14450 ft 382 kts 285°
2026-05-08 06:54 49.77652 8.30659 15443 ft 387 kts 284°
2026-05-08 06:54 49.78328 8.26614 16558 ft 390 kts 283°
2026-05-08 06:55 49.78988 8.22526 17626 ft 394 kts 283°
2026-05-08 06:55 49.79649 8.18385 18617 ft 399 kts 283°
2026-05-08 06:55 49.80310 8.14234 19466 ft 405 kts 283°
2026-05-08 06:55 49.80986 8.09988 20348 ft 409 kts 283°
2026-05-08 06:56 49.81670 8.05684 21238 ft 413 kts 283°
2026-05-08 06:56 49.82359 8.01335 22082 ft 418 kts 283°
2026-05-08 06:56 49.83054 7.96941 22907 ft 423 kts 283°
2026-05-08 06:56 49.83758 7.92490 23711 ft 428 kts 283°
2026-05-08 06:57 49.84470 7.87983 24374 ft 432 kts 283°
2026-05-08 06:57 49.85184 7.83447 25055 ft 436 kts 283°
2026-05-08 06:57 49.85904 7.78860 25707 ft 439 kts 283°
2026-05-08 06:57 49.86629 7.74243 26337 ft 443 kts 283°
2026-05-08 06:58 49.87363 7.69576 26931 ft 448 kts 282°
2026-05-08 06:58 49.88095 7.64854 27497 ft 452 kts 282°
2026-05-08 06:58 49.88829 7.60080 28069 ft 456 kts 282°
2026-05-08 06:58 49.89564 7.55273 28638 ft 459 kts 282°
2026-05-08 06:59 49.90301 7.50444 29169 ft 463 kts 282°
2026-05-08 06:59 49.91043 7.45570 29660 ft 466 kts 282°
2026-05-08 06:59 49.91791 7.40644 30044 ft 470 kts 282°
2026-05-08 06:59 49.92536 7.35728 30097 ft 477 kts 282°
2026-05-08 07:00 49.94068 7.25573 30116 ft 488 kts 282°
2026-05-08 07:00 49.95612 7.15281 30104 ft 488 kts 282°
2026-05-08 07:01 49.97142 7.05014 30101 ft 487 kts 282°
2026-05-08 07:01 49.98621 6.94740 30082 ft 486 kts 278°
2026-05-08 07:02 49.99200 6.84266 30097 ft 489 kts 268°
2026-05-08 07:02 49.98832 6.73634 30091 ft 496 kts 266°
2026-05-08 07:03 49.98447 6.62930 30087 ft 495 kts 263°
2026-05-08 07:03 49.97053 6.52477 30089 ft 494 kts 253°
2026-05-08 07:04 49.94559 6.42565 30085 ft 493 kts 245°
2026-05-08 07:04 49.91784 6.32919 30098 ft 493 kts 246°
2026-05-08 07:05 49.89020 6.23188 30075 ft 493 kts 245°